GW0861 Weather Reports


Display with metric or nautical units.
time (UTC)temp
F
wind
direction
speed
MPH
gust
MPH
rain 1hr
in
rain 24hr
in
rain mn
in
humidity
%
barometer
mb
20260508012023 47 288 11.0 16.0 0.00 0.00 0.00 65 1010.0
20260508011522 47 303 3.0 19.0 0.00 0.00 0.00 66 1010.0
20260508011518 47 266 4.0 19.0 0.00 0.00 0.00 66 1009.7
20260508010524 48 279 6.0 14.0 0.00 0.00 0.00 64 1009.7
20260508010023 48 298 1.0 3.0 0.00 0.00 0.00 64 1009.5
20260508005523 48 298 0.0 3.0 0.00 0.00 0.00 63 1009.5
20260508005022 48 286 0.0 3.0 0.00 0.00 0.00 62 1009.3
20260508004523 48 286 0.0 3.0 0.00 0.00 0.00 61 1009.2
20260508004023 48 286 1.0 3.0 0.00 0.00 0.00 63 1009.1
20260508003800 48 286 1.0 5.0 0.00 0.00 0.00 62 1009.1
20260508003023 48 319 2.0 5.0 0.00 0.00 0.00 62 1009.0
20260508002758 49 307 2.0 5.0 0.00 0.00 0.00 62 1009.1
20260508002024 49 302 2.0 5.0 0.00 0.00 0.00 62 1009.0
20260508001522 49 307 2.0 6.0 0.00 0.00 0.00 61 1009.0
20260508001023 49 286 2.0 6.0 0.00 0.00 0.00 60 1009.0
20260508000522 49 288 2.0 5.0 0.00 0.00 0.00 61 1008.9
20260508000023 49 264 3.0 6.0 0.00 0.00 0.00 61 1008.9
20260507235522 49 329 3.0 7.0 0.00 0.00 0.00 59 1008.9
20260507235023 49 354 3.0 7.0 0.00 0.00 0.00 61 1008.9
20260507234523 50 288 3.0 6.0 0.00 0.00 0.00 61 1008.8
20260507234227 50 331 4.0 10.0 0.00 0.00 0.00 58 1008.8
20260507234023 50 279 2.0 10.0 0.00 0.00 0.00 61 1008.9
20260507233022 50 298 3.0 7.0 0.00 0.00 0.00 59 1008.8
20260507232522 51 282 3.0 7.0 0.00 0.00 0.00 59 1008.8
20260507232026 51 307 3.0 7.0 0.00 0.00 0.00 59 1008.8
20260507230522 51 298 2.0 9.0 0.00 0.00 0.00 57 1008.8
20260507230022 51 320 1.0 9.0 0.00 0.00 0.00 58 1008.8
20260507225522 51 300 2.0 7.0 0.00 0.00 0.00 56 1008.8
20260507225022 51 309 2.0 7.0 0.00 0.00 0.00 57 1008.8
20260507224522 52 309 2.0 6.0 0.00 0.00 0.00 58 1008.9
20260507224304 52 307 2.0 10.0 0.00 0.00 0.00 56 1008.8
20260507224300 52 282 3.0 10.0 0.00 0.00 0.00 57 1008.8
20260507223022 52 296 3.0 5.0 0.00 0.00 0.00 58 1008.8
20260507222523 52 314 2.0 6.0 0.00 0.00 0.00 57 1008.8
20260507222023 52 286 2.0 9.0 0.00 0.00 0.00 55 1008.8
20260507221758 52 276 3.0 9.0 0.00 0.00 0.00 54 1008.8
20260507221514 52 340 3.0 10.0 0.00 0.00 0.00 54 1008.8
20260507220521 52 305 4.0 10.0 0.00 0.00 0.00 51 1008.8
20260507220245 53 310 3.0 9.0 0.00 0.00 0.00 56 1008.7
20260507215532 53 307 4.0 9.0 0.00 0.00 0.00 53 1008.8
20260507215022 53 293 2.0 9.0 0.00 0.00 0.00 56 1008.8
20260507214522 53 251 3.0 10.0 0.00 0.00 0.00 54 1008.8
20260507214508 53 245 2.0 11.0 0.00 0.00 0.00 55 1008.7
20260507213315 53 310 3.0 9.0 0.00 0.00 0.00 52 1008.7
20260507212522 53 314 3.0 9.0 0.00 0.00 0.00 52 1008.8
20260507212022 53 309 5.0 12.0 0.00 0.00 0.00 52 1008.7
20260507211525 54 303 4.0 12.0 0.00 0.00 0.00 51 1008.7
20260507211520 54 324 5.0 14.0 0.00 0.00 0.00 52 1008.7
20260507210749 54 276 7.0 19.0 0.00 0.00 0.00 52 1008.6
20260507210717 54 285 9.0 19.0 0.00 0.00 0.00 52 1008.7
20260507205022 53 299 2.0 7.0 0.00 0.00 0.00 57 1008.7
20260507204522 53 283 4.0 12.0 0.00 0.00 0.00 52 1008.8
20260507204244 53 323 5.0 12.0 0.00 0.00 0.00 53 1008.8
20260507203523 53 331 2.0 10.0 0.00 0.00 0.00 52 1008.8
20260507203022 54 312 5.0 10.0 0.00 0.00 0.00 53 1008.9
20260507202522 54 265 2.0 9.0 0.00 0.00 0.00 54 1008.9
20260507202113 54 286 3.0 14.0 0.00 0.00 0.00 51 1008.7
20260507202022 54 307 3.0 9.0 0.00 0.00 0.00 53 1008.8
20260507201023 54 306 5.0 16.0 0.00 0.00 0.00 53 1008.7
20260507200522 54 295 9.0 16.0 0.00 0.00 0.00 52 1008.7
20260507200022 54 264 8.0 16.0 0.00 0.00 0.00 50 1008.8
20260507195522 54 269 10.0 16.0 0.00 0.00 0.00 49 1008.9
20260507195513 54 307 5.0 10.0 0.00 0.00 0.00 52 1008.9
20260507194916 54 268 5.0 11.0 0.00 0.00 0.00 50 1009.1
20260507194023 54 285 6.0 14.0 0.00 0.00 0.00 52 1009.1
20260507193753 54 286 6.0 14.0 0.00 0.00 0.00 53 1009.1
20260507193022 54 269 4.0 11.0 0.00 0.00 0.00 53 1009.0
20260507192752 54 285 6.0 11.0 0.00 0.00 0.00 52 1009.1
20260507191522 54 354 3.0 16.0 0.00 0.00 0.00 53 1009.3
20260507191022 54 282 10.0 15.0 0.00 0.00 0.00 52 1009.3
20260507190759 53 292 7.0 14.0 0.00 0.00 0.00 54 1009.2
20260507190257 53 281 7.0 14.0 0.00 0.00 0.00 51 1009.4
20260507185758 54 266 6.0 13.0 0.00 0.00 0.00 51 1009.5
20260507185046 54 310 7.0 11.0 0.00 0.00 0.00 52 1009.5
20260507185038 54 254 3.0 11.0 0.00 0.00 0.00 54 1009.5
20260507184023 54 305 3.0 9.0 0.00 0.00 0.00 53 1009.5
20260507183522 54 303 4.0 12.0 0.00 0.00 0.00 54 1009.5
20260507183514 54 298 6.0 18.0 0.00 0.00 0.00 54 1009.4
20260507182748 54 319 5.0 18.0 0.00 0.00 0.00 53 1009.5
20260507182027 53 0 8.0 19.0 0.00 0.00 0.00 54 1009.5
20260507182023 54 293 8.0 18.0 0.00 0.00 0.00 54 1009.5
20260507181022 53 275 11.0 19.0 0.00 0.00 0.00 53 1009.4
20260507180522 52 278 12.0 18.0 0.00 0.00 0.00 52 1009.6
20260507180327 52 285 8.0 16.0 0.00 0.00 0.00 57 1009.6
20260507175522 51 281 5.0 16.0 0.00 0.00 0.00 57 1009.6
20260507175307 51 288 8.0 16.0 0.00 0.00 0.00 54 1009.7
20260507174523 51 321 7.0 13.0 0.00 0.00 0.00 57 1009.8
20260507174022 51 278 2.0 15.0 0.00 0.00 0.00 59 1009.9
20260507173801 51 299 6.0 15.0 0.00 0.00 0.00 55 1010.0
20260507173024 51 278 9.0 18.0 0.00 0.01 0.00 54 1010.1
20260507172750 51 281 9.0 18.0 0.00 0.01 0.00 54 1009.9
20260507172259 51 292 8.0 16.0 0.00 0.01 0.00 56 1010.0
20260507171521 51 286 6.0 17.0 0.00 0.01 0.00 57 1010.0
20260507171022 51 235 9.0 17.0 0.00 0.01 0.00 54 1010.0
20260507170524 51 258 9.0 14.0 0.00 0.01 0.00 60 1010.1
20260507170519 50 302 8.0 14.0 0.00 0.01 0.00 60 1010.2
20260507165023 50 333 8.0 13.0 0.00 0.01 0.00 62 1010.5
20260507165010 50 281 6.0 11.0 0.00 0.01 0.00 61 1010.5
20260507164022 49 314 9.0 11.0 0.00 0.02 0.00 57 1010.5
20260507163522 49 265 6.0 12.0 0.00 0.02 0.00 59 1010.5
20260507163247 49 268 7.0 15.0 0.00 0.02 0.00 60 1010.6
20260507162258 50 265 11.0 17.0 0.00 0.02 0.00 59 1010.7
20260507161801 50 265 5.0 12.0 0.00 0.02 0.00 59 1010.7
20260507161022 50 286 6.0 12.0 0.00 0.02 0.00 58 1010.6
20260507160751 50 271 4.0 13.0 0.00 0.03 0.00 61 1010.8
20260507160022 51 285 7.0 15.0 0.00 0.03 0.00 59 1010.9
20260507155745 51 278 10.0 15.0 0.00 0.03 0.00 59 1010.7
20260507155022 51 306 8.0 14.0 0.00 0.03 0.00 59 1010.7
20260507154522 51 300 6.0 12.0 0.00 0.04 0.00 61 1010.7
20260507154115 51 295 3.0 11.0 0.00 0.04 0.00 60 1010.8
20260507154022 51 295 4.0 10.0 0.00 0.04 0.00 58 1010.8
20260507153255 50 309 6.0 11.0 0.00 0.04 0.00 64 1010.8
20260507152521 49 286 3.0 14.0 0.00 0.04 0.00 65 1010.9
20260507152246 49 289 9.0 14.0 0.00 0.04 0.00 64 1010.9
20260507151800 48 290 4.0 10.0 0.00 0.04 0.00 65 1011.0
20260507151025 48 276 4.0 14.0 0.00 0.05 0.00 61 1011.1
20260507150522 49 310 5.0 16.0 0.00 0.05 0.00 61 1011.1
20260507150024 49 271 11.0 16.0 0.00 0.06 0.00 58 1011.1
20260507145521 49 302 6.0 13.0 0.00 0.06 0.00 61 1011.2
20260507145246 49 295 9.0 13.0 0.00 0.07 0.00 60 1011.2
20260507144022 49 265 9.0 18.0 0.00 0.08 0.00 59 1011.2
20260507143522 49 286 11.0 18.0 0.00 0.10 0.00 61 1011.2
20260507143022 49 282 12.0 17.0 0.00 0.12 0.00 60 1011.1
20260507142523 49 286 12.0 17.0 0.00 0.12 0.00 61 1011.1
20260507142258 49 309 8.0 14.0 0.00 0.13 0.00 65 1011.0
20260507141522 49 283 8.0 13.0 0.00 0.13 0.00 67 1011.2
20260507141022 49 223 5.0 10.0 0.00 0.14 0.00 66 1011.3
20260507140522 50 317 4.0 10.0 0.00 0.14 0.00 66 1011.3
20260507140023 50 269 4.0 10.0 0.00 0.14 0.00 67 1011.2
20260507135522 49 206 5.0 9.0 0.00 0.15 0.00 66 1011.3
20260507135257 49 152 4.0 5.0 0.00 0.16 0.00 70 1011.3
20260507134523 48 279 3.0 7.0 0.00 0.16 0.00 70 1011.4
20260507134022 48 281 4.0 7.0 0.00 0.17 0.00 73 1011.4
20260507133522 47 202 3.0 7.0 0.00 0.18 0.00 74 1011.6
20260507133510 47 250 3.0 7.0 0.00 0.19 0.00 74 1011.6
20260507132023 46 295 2.0 5.0 0.00 0.20 0.00 77 1011.8
20260507131521 46 224 4.0 5.0 0.00 0.21 0.00 76 1011.8
20260507131021 46 298 3.0 4.0 0.00 0.22 0.00 80 1011.9
20260507130521 45 234 2.0 4.0 0.00 0.22 0.00 82 1011.8
20260507130256 44 234 2.0 4.0 0.00 0.23 0.00 82 1011.8
20260507125521 43 188 1.0 3.0 0.00 0.24 0.00 85 1011.7
20260507125022 43 269 2.0 4.0 0.00 0.24 0.00 88 1011.7
20260507124522 42 274 3.0 4.0 0.00 0.25 0.00 89 1011.8
20260507124258 42 278 2.0 5.0 0.00 0.27 0.00 91 1011.8
20260507123521 42 238 2.0 6.0 0.00 0.28 0.00 92 1011.8
20260507123022 41 250 4.0 6.0 0.00 0.29 0.00 93 1011.9
20260507122521 41 296 1.0 3.0 0.00 0.30 0.00 93 1011.8
20260507122022 40 296 2.0 3.0 0.00 0.32 0.00 94 1011.8
20260507121523 40 296 2.0 3.0 0.00 0.33 0.00 94 1011.8
20260507121258 40 296 1.0 2.0 0.00 0.35 0.00 94 1011.8
20260507120520 39 296 0.0 2.0 0.00 0.36 0.00 94 1011.7
20260507120021 39 296 1.0 3.0 0.00 0.37 0.00 94 1011.7
20260507115522 39 296 2.0 4.0 0.00 0.38 0.00 94 1011.7
20260507115021 39 296 3.0 4.0 0.00 0.39 0.00 94 1011.6
20260507114521 39 121 0.0 3.0 0.00 0.39 0.00 95 1011.5
20260507114022 38 121 2.0 3.0 0.00 0.40 0.00 95 1011.4
20260507113522 38 162 2.0 3.0 0.00 0.40 0.00 94 1011.4
20260507113023 37 127 0.0 3.0 0.00 0.41 0.00 94 1011.5
20260507112521 37 240 0.0 4.0 0.00 0.41 0.00 94 1011.6
20260507112021 36 226 2.0 4.0 0.00 0.41 0.00 94 1011.8
20260507111522 36 259 3.0 4.0 0.00 0.41 0.00 94 1011.8
20260507111021 36 254 0.0 4.0 0.00 0.42 0.00 94 1011.7
20260507110811 36 254 2.0 5.0 0.00 0.42 0.00 93 1011.7
20260507110021 36 264 3.0 5.0 0.00 0.42 0.00 93 1011.6
20260507105521 36 307 2.0 3.0 0.00 0.42 0.00 93 1011.6
20260507105021 35 307 2.0 3.0 0.00 0.42 0.00 93 1011.6
20260507104522 36 307 2.0 4.0 0.00 0.42 0.00 93 1011.5
20260507104021 36 307 2.0 4.0 0.00 0.43 0.00 93 1011.5
20260507103522 36 307 2.0 4.0 0.00 0.44 0.00 92 1011.4
20260507103021 36 307 2.0 4.0 0.00 0.44 0.00 92 1011.4
20260507102521 36 307 3.0 4.0 0.00 0.44 0.00 92 1011.4
20260507102256 36 307 2.0 4.0 0.00 0.45 0.00 92 1011.3
20260507101521 36 307 2.0 4.0 0.00 0.45 0.00 92 1011.2
20260507101258 36 307 2.0 3.0 0.00 0.45 0.00 92 1011.2
20260507100521 36 307 1.0 3.0 0.00 0.46 0.00 92 1011.3
20260507100021 36 307 0.0 3.0 0.00 0.46 0.00 92 1011.2
20260507095524 37 307 0.0 3.0 0.00 0.46 0.00 92 1011.2
20260507095021 37 307 1.0 3.0 0.00 0.46 0.00 92 1011.2
20260507094521 37 307 0.0 0.0 0.00 0.46 0.00 92 1011.3
20260507094021 37 307 0.0 0.0 0.00 0.46 0.00 92 1011.2
20260507093522 37 307 0.0 0.0 0.00 0.46 0.00 92 1011.2
20260507093256 37 307 0.0 2.0 0.00 0.47 0.00 92 1011.2
20260507092522 37 307 1.0 2.0 0.00 0.47 0.00 92 1011.2
20260507092258 37 307 0.0 2.0 0.00 0.47 0.00 91 1011.2
20260507091757 37 307 0.0 1.0 0.00 0.48 0.00 91 1011.3
20260507091255 37 307 0.0 0.0 0.00 0.48 0.00 91 1011.3
20260507090522 37 307 0.0 0.0 0.00 0.49 0.00 91 1011.2
20260507090021 38 307 0.0 0.0 0.00 0.49 0.00 91 1011.5
20260507085521 38 307 0.0 2.0 0.00 0.50 0.00 91 1011.5
20260507085022 38 307 1.0 2.0 0.00 0.50 0.00 91 1011.5
20260507084536 38 307 1.0 2.0 0.00 0.50 0.00 91 1011.5
20260507083800 38 307 1.0 2.0 0.00 0.50 0.00 90 1011.5
20260507083021 38 307 0.0 0.0 0.00 0.51 0.00 90 1011.5
20260507082521 39 307 0.0 0.0 0.00 0.51 0.00 90 1011.6
20260507082022 39 307 0.0 0.0 0.00 0.51 0.00 90 1011.6
20260507081521 39 307 0.0 2.0 0.00 0.51 0.00 90 1011.6
20260507081022 39 307 0.0 2.0 0.00 0.51 0.00 90 1011.5
20260507080521 39 307 0.0 0.0 0.00 0.52 0.00 90 1011.5
20260507080022 39 307 0.0 0.0 0.00 0.52 0.00 90 1011.5
20260507075522 39 307 0.0 0.0 0.00 0.52 0.00 90 1011.5
20260507075022 39 307 0.0 0.0 0.00 0.52 0.00 90 1011.5
20260507074521 39 307 0.0 0.0 0.00 0.52 0.00 90 1011.6
20260507074023 40 307 0.0 2.0 0.00 0.52 0.00 90 1011.5
20260507073521 40 307 0.0 2.0 0.00 0.52 0.00 89 1011.5
20260507073020 40 307 0.0 3.0 0.00 0.52 0.00 89 1011.5
20260507072524 40 307 0.0 3.0 0.00 0.52 0.00 89 1011.5
20260507072258 40 307 0.0 2.0 0.00 0.53 0.00 89 1011.6
20260507071521 40 307 0.0 0.0 0.00 0.53 0.00 89 1011.6
20260507071021 40 307 0.0 0.0 0.00 0.53 0.00 89 1011.5
20260507070522 40 307 0.0 0.0 0.00 0.53 0.00 89 1011.4
20260507070021 40 307 0.0 0.0 0.00 0.53 0.00 89 1011.4
20260507065521 40 307 0.0 0.0 0.00 0.53 0.00 89 1011.4
20260507065021 40 307 0.0 0.0 0.00 0.53 0.00 89 1011.5
20260507064521 40 307 0.0 2.0 0.00 0.53 0.00 89 1011.5
20260507064021 40 307 0.0 2.0 0.00 0.53 0.00 89 1011.5
20260507063521 40 307 0.0 3.0 0.00 0.53 0.00 89 1011.6
20260507063021 40 307 0.0 5.0 0.00 0.53 0.00 89 1011.7
20260507062523 40 307 2.0 5.0 0.00 0.53 0.00 89 1011.7
20260507062021 40 313 1.0 3.0 0.00 0.53 0.00 89 1011.7
20260507061522 40 313 0.0 5.0 0.00 0.54 0.00 89 1011.8
20260507061020 40 313 1.0 5.0 0.00 0.54 0.00 89 1012.0
20260507060521 40 302 1.0 4.0 0.00 0.54 0.00 89 1011.8
20260507060257 40 292 0.0 2.0 0.00 0.54 0.00 89 1011.5
20260507055521 40 274 0.0 1.0 0.00 0.54 0.00 89 1011.4
20260507055022 40 274 0.0 1.0 0.00 0.54 0.00 88 1011.6
20260507054521 40 274 0.0 1.0 0.00 0.54 0.00 88 1011.7
20260507054258 40 274 0.0 1.0 0.00 0.54 0.00 88 1011.7
20260507053522 40 274 0.0 2.0 0.00 0.54 0.00 88 1011.7
20260507053021 40 274 1.0 2.0 0.00 0.54 0.00 88 1011.9
20260507052756 41 274 0.0 1.0 0.00 0.54 0.00 88 1011.8
20260507052021 41 274 0.0 1.0 0.00 0.54 0.00 88 1011.8
20260507051521 41 274 0.0 1.0 0.00 0.54 0.00 88 1011.7
20260507051021 41 274 0.0 1.0 0.00 0.54 0.00 88 1011.7
20260507050801 41 274 0.0 4.0 0.00 0.54 0.00 87 1011.8
20260507050043 41 302 1.0 4.0 0.00 0.54 0.00 87 1011.8
20260507050035 41 274 0.0 4.0 0.00 0.54 0.00 87 1011.8
20260507045021 41 302 2.0 5.0 0.00 0.54 0.00 87 1011.9
20260507044757 41 302 3.0 7.0 0.00 0.54 0.00 87 1011.8
20260507044228 41 281 4.0 7.0 0.00 0.54 0.00 86 1011.8
20260507043020 41 296 3.0 6.0 0.00 0.54 0.00 87 1011.8
20260507043012 42 300 4.0 7.0 0.00 0.54 0.00 87 1011.7
20260507041521 42 298 4.0 7.0 0.00 0.54 0.00 87 1011.7
20260507041021 42 269 6.0 7.0 0.00 0.54 0.00 87 1011.7
20260507040754 42 303 3.0 6.0 0.00 0.54 0.00 87 1011.6
20260507040022 42 293 3.0 5.0 0.00 0.54 0.00 87 1011.7
20260507035757 42 278 2.0 6.0 0.00 0.54 0.54 87 1011.6
20260507035254 42 288 4.0 6.0 0.00 0.54 0.54 86 1011.7
20260507034521 42 278 3.0 6.0 0.00 0.54 0.54 86 1011.5
20260507034021 42 282 4.0 6.0 0.00 0.54 0.54 85 1011.4
20260507033543 42 275 3.0 6.0 0.00 0.54 0.54 84 1011.2
20260507033535 42 275 2.0 6.0 0.00 0.54 0.54 85 1011.3
20260507032520 42 271 3.0 11.0 0.00 0.54 0.54 84 1011.0
20260507032021 42 282 4.0 11.0 0.00 0.54 0.54 83 1010.9
20260507031759 43 252 5.0 10.0 0.00 0.54 0.54 83 1010.9
20260507030520 43 265 4.0 12.0 0.00 0.54 0.54 84 1010.9
20260507030024 43 310 4.0 13.0 0.00 0.54 0.54 84 1010.9
20260507030020 43 276 6.0 13.0 0.00 0.54 0.54 85 1011.2
20260507025022 43 298 4.0 13.0 0.00 0.54 0.54 86 1011.1
20260507024753 43 288 8.0 16.0 0.00 0.54 0.54 87 1011.2
20260507024302 44 288 9.0 16.0 0.00 0.54 0.54 88 1011.1
20260507023521 44 292 6.0 15.0 0.00 0.54 0.54 89 1011.2
20260507023021 44 312 6.0 16.0 0.00 0.54 0.54 90 1011.2
20260507022523 44 272 9.0 16.0 0.00 0.54 0.54 91 1011.2
20260507022021 44 289 6.0 12.0 0.00 0.54 0.54 93 1011.3
20260507021556 45 300 5.0 13.0 0.00 0.54 0.54 94 1011.3
20260507021544 44 275 7.0 12.0 0.00 0.54 0.54 93 1011.3
20260507020510 45 295 9.0 15.0 0.00 0.54 0.54 94 1011.2
20260507015520 45 285 5.0 14.0 0.00 0.54 0.54 94 1011.1
20260507015020 45 285 4.0 5.0 0.00 0.54 0.54 94 1011.5
20260507014521 45 269 2.0 4.0 0.00 0.54 0.54 94 1011.3
20260507014020 45 269 2.0 4.0 0.00 0.54 0.54 93 1011.2
20260507013521 45 269 2.0 4.0 0.00 0.54 0.54 93 1011.3
20260507013021 45 269 2.0 4.0 0.00 0.54 0.54 93 1011.2